#timestamp,LO_Frequency,Hit,StdDev 
1600666075.7,286047007.5,P
1600666095.6,286047007.2,P
1600666115.4,286047007.5,P
1600666135.2,286047007.5,Y
1600666155.1,286047000.8,P
1600666156.0,286047000.8,N
1600666175.8,286046999.8,N
1600666195.7,286046999.9,N
1600666215.5,286047000.9,N
1600666235.3,286046999.3,N
1600666255.2,286046999.2,N
1600666275.0,286046999.6,N
1600666275.9,286046999.6,N
1600666295.7,286046999.5,N
1600666315.6,286046997.0,N
1600666335.4,286046996.6,N
1600666355.3,286046997.2,N
1600666375.1,286046997.2,N
1600666376.0,286046997.2,N
1600666395.8,286046997.6,N
1600666415.7,286046998.0,N
1600666435.5,286046997.9,N
1600666455.3,286046999.5,N
1600666475.2,286046999.2,N
1600666495.0,286046997.1,N
1600666495.9,286046997.1,N
1600666515.8,286046999.4,N
1600666535.6,286046999.2,N
1600666555.4,286046998.1,N
1600666575.3,286046999.9,N
1600666595.1,286047001.0,N
1600666615.9,286046999.7,N
1600666635.7,286047000.0,N
1600666655.5,286046999.9,N
1600666675.4,286047000.7,N
1600666695.2,286046999.9,N
1600666715.0,286047000.8,N
1600666715.9,286047000.8,N
1600666735.8,286047001.0,N
1600666755.6,286046999.9,N
1600666775.5,286047000.1,N
1600666795.3,286047001.9,N
1600666815.1,286047002.0,N
1600666835.9,286047003.0,N
1600666855.7,286047004.8,N
1600666875.5,286047005.5,N
1600666895.4,286047003.6,N
1600666915.2,286047000.3,N
1600666935.1,286047001.0,N
1600666936.0,286047001.0,N
1600666955.8,286047001.9,N
1600666975.6,286046999.8,N
1600666995.5,286046998.9,N
1600667015.3,286046997.0,N
1600667035.1,286047002.8,N
1600667055.9,286047002.1,N
1600667075.7,286047003.9,N
1600667095.6,286047000.4,N
1600667115.4,286046998.9,N
1600667135.2,286046998.4,N
1600667155.1,286047000.7,N
1600667156.0,286047000.7,N
1600667175.8,286047001.2,N
1600667195.7,286046998.3,N
1600667215.5,286047000.6,N
1600667235.3,286046998.2,N
1600667255.2,286046996.7,N
1600667275.9,286046997.6,N
1600667295.7,286046994.0,N
1600667315.6,286046994.6,N
1600667335.4,286046995.8,N
1600667355.3,286046994.9,N
1600667375.1,286046998.0,N
1600667376.0,286046998.0,N
1600667395.8,286046994.9,N
1600667415.7,286046995.6,N
1600667435.5,286046995.9,N
1600667455.3,286046996.3,N
1600667475.2,286046994.9,N
1600667495.0,286046997.3,N
1600667495.9,286046997.3,N
1600667515.8,286046998.2,N
1600667535.6,286047000.4,N
1600667555.4,286047004.4,N
1600667575.3,286047000.3,N
1600667595.1,286046998.7,N
1600667615.8,286046999.2,N
1600667635.7,286046996.7,N
1600667655.5,286046997.7,N
1600667675.4,286046997.8,N
1600667695.2,286046997.2,N
1600667715.0,286046997.4,N
1600667715.9,286046997.4,N
1600667735.8,286046998.5,N
1600667755.6,286047001.0,N
1600667775.4,286046999.1,N
1600667795.3,286046999.2,N
1600667815.1,286046995.4,N
1600667835.9,286046993.7,N
1600667855.7,286046996.3,N
1600667875.5,286046993.3,Y
1600667895.4,286046996.2,P
1600667915.2,286046995.0,P
1600667935.0,286046998.5,N
1600667936.0,286046998.5,N
1600667955.8,286047000.5,N
1600667975.6,286047000.9,N
1600667995.5,286047000.5,N
